Regional Weather Roundup
Issued by NWS Huntsville, AL

Home | Current Version | Previous Version | Text Only | Print | Product List | Glossary On
Versions: 1 2 3 4 5 6 7 8 9 10 11 12 13 14 15 16 17 18 19 20 21 22 23 24 25 26 27
000
ASUS44 KHUN 182210
RWRHUN

WEATHER ROUNDUP FOR THE TENNESSEE VALLEY
NATIONAL WEATHER SERVICE HUNTSVILLE AL
400 PM CST WED JAN 18 2017

ALZ001>004-182300-
NORTHWEST ALABAMA

CITY           SKY/WX    TMP DP  RH WIND       PRES   REMARKS
COURTLAND HCN    N/A     57 N/A N/A NE5         N/A
SHOALS AIRPORT MOSUNNY   58  46  64 E5        30.12S
SHOALS TVA RES   N/A     57 N/A N/A MISG        N/A
$$

ALZ005>007-016-182300-
NORTH CENTRAL ALABAMA

CITY           SKY/WX    TMP DP  RH WIND       PRES   REMARKS
CULLMAN AG STN   N/A     63 N/A N/A CALM        N/A
DECATUR AP     MOSUNNY   60  49  66 N3        30.12F
HUNTSVILLE AP  CLOUDY    62  50  64 NW3       30.11F
MERIDIANVILLE  PTSUNNY   55  45  67 N5        30.12F
REDSTONE ARSN  PTSUNNY   59  49  68 NE6       30.09F
VINEMONT AP    FAIR      62  48  61 CALM      30.13S
$$

ALZ008>010-182300-
NORTHEAST ALABAMA

CITY           SKY/WX    TMP DP  RH WIND       PRES   REMARKS
ALBERTVILLE    MOSUNNY   61  54  77 N3        30.10S
FORT PAYNE     CLOUDY    63  41  45 W6        30.10S
SCOTTSBORO AP  CLEAR     63  46  55 S3        30.11S
SCOTTSBORO HCN   N/A     64 N/A N/A MISG        N/A
VALLEY HEAD      N/A     64 N/A N/A MISG        N/A
$$

TNZ076-096-097-182300-
SOUTHEASTERN MIDDLE TENNESSEE

CITY           SKY/WX    TMP DP  RH WIND       PRES   REMARKS
TULLAHOMA      CLEAR     52  43  71 CALM      30.13S
WINCHESTER     CLEAR     55  45  67 CALM      30.12S
$$

...SURROUNDING SITES...

CITY           SKY/WX    TMP DP  RH WIND       PRES   REMARKS
ATLANTA        PTCLDY    69  52  54 W12       30.08S
ANNISTON       SUNNY     65  55  70 S6        30.10F
BIRMINGHAM     PTSUNNY   66  53  63 CALM      30.12F
CHATTANOOGA    CLOUDY    64  44  48 CALM      30.10F
CORINTH        FAIR      55  45  67 E3        30.11S
DALTON         PTCLDY    63  48  59 N6        30.10S
GADSDEN        SUNNY     66  54  65 CALM      30.10F
GOLDEN TRNGL   PTSUNNY   64  54  68 E9        30.04F
HALEYVILLE     FAIR      62  52  69 S3        30.11F
JACKSON TN     CLOUDY    53  45  74 E5        30.12S
MEMPHIS        CLOUDY    54  43  66 NE7       30.10F
NASHVILLE      CLOUDY    49  39  68 E5        30.15F
OXFORD MS      CLOUDY    55  48  76 E5        30.11S
ROME           CLOUDY    69  51  52 CALM      30.08S
SAVANNAH       SUNNY     55  46  71 VRB3      30.10F
TUPELO         CLOUDY    59  49  69 N3        30.10R
TUSCALOOSA     CLOUDY    66  59  78 E5        30.11S
$$

...GULF COAST WEATHER...

CITY           SKY/WX    TMP DP  RH WIND       PRES   REMARKS
GULFPORT       MOSUNNY   70  67  90 SE8       30.06F
PASCAGOULA     MOSUNNY   73  63  70 SW5       30.07S
MOBILE         MOSUNNY   76  60  57 S8        30.08R
GULF SHORES    MOCLDY    71  70  96 SE7       30.08S
PENSACOLA      FOG       68  66  93 S5        30.07F VSB 3/4
DESTIN         PTSUNNY   70  68  93 VRB3      30.07  FOG
PANAMA CITY    MOSUNNY   71  66  84 S6        30.10R
APPALACHICOLA  SUNNY     72  67  84 S9        30.09F
$$





USA.gov is the U.S. government's official web portal to all federal, state and local government web resources and services.